This is the latest recevied weather packets stored in our database for station/object AG1T-20. If no packets are shown the sender has not sent any weather packets the latest 10 day(s).
| Time | Temp. | Humidity | Pressure | Rain* | Wind** | Luminosity | Snow |
|---|---|---|---|---|---|---|---|
| 1788101404 | 16.11° C | 81% | 1019.4 hPa | 0 mm | - | 114 W/m² | - |
| 1788100804 | 16.11° C | 84% | 1019.4 hPa | 0.25 mm | - | 154 W/m² | - |
| 1788100204 | 15.56° C | 86% | 1019.4 hPa | 0.25 mm | - | 120 W/m² | - |
| 1788099604 | 15° C | 85% | 1019.4 hPa | 0.25 mm | - | 88 W/m² | - |
| 1788099004 | 15.56° C | 84% | 1019.4 hPa | 0.25 mm | - | 24 W/m² | - |
| 1788098404 | 16.67° C | 75% | 1019.4 hPa | 0.25 mm | - | 34 W/m² | - |
| 1788097804 | 17.22° C | 71% | 1019.4 hPa | 0.25 mm | - | 31 W/m² | - |
| 1788097204 | 17.22° C | 66% | 1019.4 hPa | 0 mm | - | 27 W/m² | - |
| 1788096605 | 15.56° C | 81% | 1019.4 hPa | 0 mm | - | 8 W/m² | - |
| 1788096004 | 15.56° C | 81% | 1019.4 hPa | 0 mm | - | 11 W/m² | - |
| 1788095404 | 16.11° C | 78% | 1019.4 hPa | 0 mm | - | 5 W/m² | - |
| 1788094804 | 16.67° C | 77% | 1019.4 hPa | 0 mm | - | 1 W/m² | - |
| 1788094204 | 17.22° C | 72% | 1018 hPa | 0 mm | - | 0 W/m² | - |
| 1788093605 | 16.67° C | 73% | 1018 hPa | 0.25 mm | - | 0 W/m² | - |
| 1788093004 | 17.78° C | 65% | 1018 hPa | 0.25 mm | - | 0 W/m² | - |
| 1788092404 | 17.78° C | 67% | 1018 hPa | 0.25 mm | - | 0 W/m² | - |
| 1788091804 | 16.67° C | 75% | 1018 hPa | 0.25 mm | - | 0 W/m² | - |
| 1788091204 | 16.11° C | 78% | 1018 hPa | 0.25 mm | - | 0 W/m² | - |
| 1788090604 | 15° C | 85% | 1018.4 hPa | 0.25 mm | - | 0 W/m² | - |
| 1788090005 | 15° C | 84% | 1018.4 hPa | 0 mm | - | 0 W/m² | - |
| 1788089405 | 14.44° C | 89% | 1018.4 hPa | 0 mm | - | 0 W/m² | - |
| 1788088804 | 14.44° C | 91% | 1018.4 hPa | 0 mm | - | 0 W/m² | - |
| 1788088205 | 14.44° C | 90% | 1018.4 hPa | 0 mm | - | 0 W/m² | - |
| 1788087605 | 14.44° C | 89% | 1018.4 hPa | 0 mm | - | 0 W/m² | - |
| 1788087004 | 14.44° C | 91% | 1018.6 hPa | 0 mm | - | 0 W/m² | - |
* Rain latest hour (hover to see other rain measurements)
** Current wind speed in m/s (hover to see current wind gust speed)